1491026401.04,23985,13.94,73914.5,7.65,-27.55,-28.25,0,*74
1491026402.23,23986,13.94,73916.8,7.63,-26.87,-27.55,0,*77
1491026403.45,23987,13.94,73914.5,7.63,-26.39,-26.93,0,*78
1491026404.65,23988,13.94,73916.0,7.63,-26.23,-26.87,0,*79
1491026405.89,23989,13.94,73916.0,7.65,-26.87,-27.61,0,*79
1491026407.12,23990,13.94,73912.3,7.65,-27.03,-27.71,0,*7D
1491026408.39,23991,13.94,73916.3,7.65,-27.19,-28.05,0,*7B
1491026409.64,23992,13.94,73916.0,7.65,-27.29,-28.09,0,*77
1491026410.87,23993,13.94,73918.5,7.63,-27.29,-28.09,0,*70
1491026412.15,23994,13.94,73918.3,7.65,-27.45,-28.21,0,*71
1491026413.38,23995,13.94,73918.8,7.65,-27.07,-27.89,0,*7B
1491026414.6,23996,13.94,73918.5,7.65,-27.07,-27.77,0,*79
1491026415.82,23997,13.94,73918.0,7.65,-27.03,-27.77,0,*7C
1491026417.08,23998,13.94,73914.8,7.65,-27.29,-28.09,0,*7D
1491026418.28,23999,13.94,73918.3,7.63,-27.07,-27.89,0,*71
1491026419.53,24000,13.94,73914.3,7.65,-27.71,-28.43,0,*71
1491026420.81,24001,13.94,73918.5,7.65,-27.61,-28.43,0,*71
1491026422.09,24002,13.94,73916.3,7.65,-27.45,-28.25,0,*74
1491026423.34,24003,13.94,73916.0,7.63,-28.05,-28.91,0,*77
1491026424.61,24004,13.94,73916.8,7.65,-28.05,-28.79,0,*70
1491026425.85,24005,13.94,73918.8,7.63,-28.05,-28.79,0,*77
1491026427.06,24006,13.94,73916.5,7.63,-27.55,-28.31,0,*72
1491026428.28,24007,13.94,73918.0,7.63,-26.61,-27.23,0,*79
1491026429.5,24008,13.94,73912.8,7.63,-26.13,-26.87,0,*7C
1491026430.72,24009,13.94,73914.8,7.63,-26.13,-26.87,0,*7D
1491026431.97,24010,13.94,73918.0,7.65,-26.29,-27.07,0,*73
1491026433.22,24011,13.94,73916.3,7.67,-27.19,-28.05,0,*7F
1491026434.44,24012,13.94,73914.8,7.67,-27.51,-28.25,0,*72
1491026435.69,24013,13.94,73916.5,7.67,-27.39,-28.21,0,*79
1491026436.92,24014,13.94,73912.5,7.67,-27.35,-28.15,0,*75
1491026438.11,24015,13.94,73918.8,7.67,-27.89,-28.69,0,*78
1491026439.36,24016,13.94,73914.5,7.65,-27.71,-28.47,0,*72
1491026440.61,24017,13.94,73918.0,7.65,-27.45,-28.31,0,*75
1491026441.89,24018,13.94,73916.3,7.65,-27.45,-28.25,0,*7F
1491026443.11,24019,13.94,73912.8,7.63,-26.87,-27.61,0,*78
1491026444.34,24020,13.94,73912.0,7.65,-27.07,-27.93,0,*70
1491026445.58,24021,13.94,73914.8,7.65,-27.71,-28.47,0,*76
1491026446.82,24022,13.94,73914.3,7.65,-28.31,-29.13,0,*7E
1491026448.08,24023,13.94,73914.8,7.63,-28.05,-28.91,0,*75
1491026449.3,24024,13.94,73912.5,7.63,-28.25,-28.97,0,*76
1491026450.52,24025,13.94,73912.0,7.63,-28.25,-29.07,0,*7F
1491026451.77,24026,13.94,73912.3,7.65,-28.75,-29.61,0,*7F
1491026453.04,24027,13.94,73918.0,7.61,-29.01,-29.73,0,*7B
1491026454.3,24028,13.94,73912.0,7.59,-29.13,-29.89,0,*79
1491026455.57,24029,13.94,73912.8,7.61,-29.13,-30.01,0,*7B
1491026456.83,24030,13.94,73912.3,7.57,-29.07,-29.89,0,*7B
1491026458.08,24031,13.94,73914.5,7.57,-28.91,-29.79,0,*7B
1491026459.31,24032,13.94,73912.8,7.55,-29.23,-30.01,0,*75
1491026460.53,24033,13.94,73912.8,7.55,-28.47,-29.23,0,*7F
1491026461.76,24034,13.94,73912.8,7.53,-28.37,-29.23,0,*79
1491026463.02,24035,13.94,73910.8,7.53,-28.59,-29.57,0,*73
1491026464.28,24036,13.94,73912.5,7.53,-29.23,-30.01,0,*77
1491026465.53,24037,13.94,73914.8,7.53,-29.29,-30.11,0,*7D
1491026466.79,24038,13.94,73912.8,7.51,-29.51,-30.39,0,*75
1491026468.04,24039,13.94,73914.3,7.49,-29.67,-30.55,0,*72
1491026469.3,24040,13.94,73914.8,7.47,-29.39,-30.11,0,*79
1491026470.55,24041,13.94,73914.8,7.47,-28.59,-29.57,0,*75
1491026471.83,24042,13.94,73912.3,7.43,-29.73,-30.61,0,*76
1491026473.06,24043,13.94,73914.0,7.41,-29.95,-30.77,0,*7A
1491026474.33,24044,13.94,73914.5,7.39,-29.17,-30.05,0,*7D
1491026475.6,24045,13.94,73912.8,7.39,-28.47,-29.29,0,*7E
1491026476.83,24046,13.94,73914.0,7.37,-28.85,-29.73,0,*72
1491026478.11,24047,13.94,73914.3,7.39,-28.59,-29.51,0,*7C
1491026479.34,24048,13.94,73914.5,7.37,-29.07,-29.89,0,*72
1491026480.58,24049,13.94,73914.5,7.39,-28.31,-29.13,0,*7A
1491026481.84,24050,13.94,73916.5,7.37,-28.21,-29.01,0,*7E
1491026483.09,24051,13.94,73916.8,7.39,-28.09,-28.85,0,*76
1491026484.33,24052,13.94,73912.8,7.37,-28.53,-29.35,0,*7E
1491026485.58,24053,13.94,73912.3,7.37,-29.17,-30.05,0,*75
1491026486.84,24054,13.94,73912.0,7.35,-29.07,-29.89,0,*7D
1491026488.09,24055,13.94,73916.3,7.37,-28.75,-29.73,0,*7F
1491026489.29,24056,13.94,73912.8,7.33,-28.69,-29.45,0,*70
1491026490.57,24057,13.94,73912.5,7.35,-28.05,-29.01,0,*7D
1491026491.84,24058,13.94,73918.0,7.35,-27.83,-28.63,0,*76
1491026493.04,24059,13.94,73918.5,7.33,-27.71,-28.53,0,*7F
1491026494.25,24060,13.94,73916.3,7.33,-27.67,-28.37,0,*70
1491026495.47,24061,13.94,73916.0,7.33,-27.19,-27.93,0,*79
1491026496.72,24062,13.94,73918.8,7.35,-26.81,-27.55,0,*76
1491026497.98,24063,13.94,73916.8,7.39,-26.49,-27.23,0,*7E
1491026499.23,24064,13.94,73914.8,7.37,-27.19,-27.99,0,*72
1491026500.51,24065,13.94,73914.0,7.39,-26.97,-27.61,0,*7D
1491026501.76,24066,13.94,73912.0,7.39,-27.39,-28.15,0,*77
1491026503.0,24067,13.94,73912.3,7.37,-27.61,-28.37,0,*75
1491026504.25,24068,13.94,73916.3,7.39,-27.13,-27.99,0,*7A
1491026505.47,24069,13.94,73916.0,7.39,-27.13,-27.93,0,*71
1491026506.73,24070,13.94,73916.3,7.39,-27.77,-28.63,0,*7B
1491026507.95,24071,13.94,73916.0,7.41,-28.09,-28.97,0,*78
1491026509.17,24072,13.94,73916.3,7.41,-27.89,-28.63,0,*77
1491026510.4,24073,13.94,73914.8,7.41,-27.55,-28.25,0,*75
1491026511.65,24074,13.94,73916.8,7.41,-27.39,-28.25,0,*78
1491026512.9,24075,13.94,73916.0,7.41,-27.39,-28.21,0,*7D
1491026514.14,24076,13.94,73912.8,7.41,-27.23,-28.05,0,*73
1491026515.39,24077,13.94,73916.3,7.41,-27.23,-28.09,0,*7E
1491026516.59,24078,13.94,73916.8,7.41,-27.07,-27.89,0,*70
1491026517.81,24079,13.94,73916.3,7.43,-27.55,-28.37,0,*7E
1491026519.06,24080,13.94,73914.5,7.41,-27.39,-28.21,0,*77
1491026520.34,24081,13.94,73914.3,7.43,-27.39,-28.21,0,*74
1491026521.59,24082,13.94,73914.3,7.43,-27.51,-28.25,0,*7D
1491026522.83,24083,13.94,73912.0,7.43,-27.93,-28.79,0,*7B
1491026524.03,24084,13.94,73916.3,7.41,-27.77,-28.53,0,*7C
1491026525.27,24085,13.94,73916.0,7.41,-27.39,-28.21,0,*72
1491026526.53,24086,13.94,73918.0,7.43,-27.51,-28.25,0,*79
1491026527.77,24087,13.94,73916.8,7.41,-27.39,-28.09,0,*7A
1491026528.97,24088,13.94,73912.0,7.41,-27.07,-27.89,0,*7F
1491026530.22,24089,13.94,73916.3,7.43,-26.93,-27.93,0,*7B
1491026531.43,24090,13.94,73916.0,7.41,-27.89,-28.75,0,*7C
1491026532.69,24091,13.94,73918.3,7.43,-27.77,-28.63,0,*79
1491026533.9,24092,13.94,73916.5,7.41,-27.89,-28.75,0,*7E
1491026535.12,24093,13.94,73914.0,7.43,-27.55,-28.37,0,*7A
1491026536.37,24094,13.94,73916.8,7.43,-27.77,-28.59,0,*75
1491026537.64,24095,13.94,73916.0,7.43,-28.21,-29.13,0,*77
1491026538.89,24096,13.94,73912.3,7.41,-28.05,-28.91,0,*7B
1491026540.14,24097,13.94,73914.8,7.41,-27.61,-28.43,0,*78
1491026541.35,24098,13.94,73916.0,7.41,-27.89,-28.75,0,*74
1491026542.55,24099,13.94,73916.3,7.41,-27.55,-28.37,0,*72
1491026543.74,24100,13.94,73912.5,7.41,-27.51,-28.37,0,*77
1491026545.02,24101,13.94,73918.0,7.43,-27.61,-28.43,0,*74
1491026546.27,24102,13.94,73916.3,7.43,-27.55,-28.25,0,*70
1491026547.49,24103,13.94,73914.3,7.41,-28.09,-29.07,0,*74
1491026548.71,24104,13.94,73916.3,7.41,-28.21,-29.07,0,*79
1491026549.96,24105,13.94,73912.8,7.41,-28.05,-28.91,0,*70
1491026551.18,24106,13.94,73918.8,7.41,-28.21,-29.07,0,*7B
1491026552.4,24107,13.94,73918.3,7.41,-27.77,-28.63,0,*75
1491026553.64,24108,13.94,73912.8,7.41,-28.25,-29.13,0,*74
1491026554.89,24109,13.94,73918.0,7.39,-28.63,-29.61,0,*7D
1491026556.18,24110,13.94,73918.0,7.39,-28.63,-29.51,0,*76
1491026557.43,24111,13.94,73916.0,7.39,-28.63,-29.45,0,*72
1491026558.66,24112,13.94,73914.5,7.37,-28.63,-29.57,0,*7C
1491026559.94,24113,13.94,73918.0,7.39,-28.59,-29.51,0,*7C
1491026561.19,24114,13.94,73914.5,7.37,-28.47,-29.35,0,*78
1491026562.41,24115,13.94,73914.8,7.37,-28.47,-29.23,0,*7E
1491026563.67,24116,13.94,73918.3,7.39,-28.47,-29.29,0,*79
1491026564.91,24117,13.94,73916.5,7.35,-28.47,-29.23,0,*7E
1491026566.16,24118,13.94,73916.3,7.35,-28.15,-28.91,0,*7E
1491026567.41,24119,13.94,73914.3,7.35,-28.15,-28.91,0,*7F
1491026568.64,24120,13.94,73912.3,7.33,-28.25,-28.97,0,*76
1491026569.9,24121,13.94,73914.5,7.35,-28.47,-29.39,0,*70
1491026571.13,24122,13.94,73912.0,7.33,-28.37,-29.39,0,*72
1491026572.36,24123,13.94,73912.5,7.33,-28.37,-29.29,0,*72
1491026573.6,24124,13.94,73914.0,7.33,-28.25,-29.13,0,*7F
1491026574.83,24125,13.94,73916.0,7.33,-28.37,-29.13,0,*7D
1491026576.08,24126,13.94,73914.0,7.33,-28.09,-28.91,0,*78
1491026577.28,24127,13.94,73914.8,7.33,-27.71,-28.69,0,*7E
1491026578.48,24128,13.94,73912.0,7.33,-27.03,-27.89,0,*75
1491026579.74,24129,13.94,73916.3,7.31,-27.23,-28.15,0,*7E
1491026580.96,24130,13.94,73916.8,7.33,-28.05,-28.97,0,*75
1491026582.16,24131,13.94,73918.5,7.33,-28.97,-29.79,0,*7E
1491026583.44,24132,13.94,73918.5,7.31,-29.17,-30.01,0,*71
1491026584.67,24133,13.94,73912.3,7.29,-29.61,-30.39,0,*73
1491026585.91,24134,13.94,73916.5,7.29,-29.35,-30.33,0,*7F
1491026587.17,24135,13.94,73918.5,7.29,-29.29,-30.17,0,*75
1491026588.39,24136,13.94,73916.0,7.25,-29.23,-30.01,0,*77
1491026589.58,24137,13.94,73920.5,7.25,-28.31,-29.07,0,*7A
1491026590.81,24138,13.94,73918.0,7.25,-28.15,-28.91,0,*7D
1491026592.06,24139,13.94,73918.8,7.25,-28.47,-29.35,0,*74
1491026593.28,24140,13.94,73916.3,7.25,-28.53,-29.39,0,*73
1491026594.5,24141,13.94,73918.3,7.25,-28.47,-29.23,0,*7C
1491026595.72,24142,13.94,73916.0,7.25,-28.69,-29.51,0,*76
1491026596.91,24143,13.94,73916.3,7.25,-28.31,-29.07,0,*79
1491026598.14,24144,13.94,73918.3,7.21,-27.89,-28.75,0,*72
1491026599.39,24145,13.94,73918.0,7.21,-27.83,-28.59,0,*77
1491026600.61,24146,13.94,73914.8,7.25,-28.05,-29.07,0,*7B
1491026601.81,24147,13.94,73920.3,7.25,-27.89,-28.69,0,*78
1491026603.0,24148,13.94,73916.5,7.25,-28.31,-29.23,0,*74
1491026604.25,24149,13.94,73918.8,7.25,-27.45,-28.21,0,*7A
1491026605.5,24150,13.94,73918.0,7.25,-26.71,-27.45,0,*79
1491026606.73,24151,13.94,73916.5,7.27,-26.65,-27.29,0,*75
1491026607.98,24152,13.94,73918.5,7.27,-26.65,-27.45,0,*7C
1491026609.24,24153,13.94,73918.8,7.27,-26.81,-27.51,0,*72
1491026610.48,24154,13.94,73918.0,7.27,-26.87,-27.45,0,*76
1491026611.71,24155,13.94,73914.0,7.29,-27.23,-28.15,0,*7C
1491026612.92,24156,13.94,73918.8,7.29,-27.55,-28.31,0,*78
1491026614.18,24157,13.94,73916.5,7.31,-27.83,-28.75,0,*7B
1491026615.41,24158,13.94,73918.8,7.29,-28.31,-29.01,0,*79
1491026616.67,24159,13.94,73916.8,7.31,-27.83,-28.75,0,*75
1491026617.93,24160,13.94,73918.0,7.31,-27.83,-28.79,0,*73
1491026619.16,24161,13.94,73914.8,7.29,-27.93,-28.79,0,*7A
1491026620.4,24162,13.94,73918.8,7.29,-27.99,-28.75,0,*7F
1491026621.64,24163,13.94,73918.8,7.31,-28.31,-29.29,0,*72
1491026622.87,24164,13.94,73918.0,7.29,-27.71,-28.59,0,*71
1491026624.12,24165,13.94,73918.0,7.31,-27.23,-27.93,0,*77
1491026625.33,24166,13.94,73918.0,7.29,-27.29,-28.15,0,*76
1491026626.58,24167,13.94,73918.5,7.31,-27.55,-28.47,0,*72
1491026627.83,24168,13.94,73914.3,7.31,-27.77,-28.59,0,*72
1491026629.06,24169,13.94,73918.5,7.29,-27.45,-28.31,0,*75
1491026630.3,24170,13.94,73918.3,7.31,-27.55,-28.43,0,*70
1491026631.58,24171,13.94,73914.5,7.31,-27.39,-28.25,0,*7B
1491026632.78,24172,13.94,73914.3,7.29,-27.13,-27.71,0,*77
1491026634.03,24173,13.94,73916.5,7.31,-26.97,-27.77,0,*74
1491026635.27,24174,13.94,73918.5,7.31,-27.29,-28.15,0,*7C
1491026636.51,24175,13.94,73918.8,7.31,-27.93,-28.79,0,*76
1491026637.75,24176,13.94,73918.0,7.31,-27.93,-28.79,0,*75
1491026638.96,24177,13.94,73916.3,7.33,-27.77,-28.69,0,*7D
1491026640.19,24178,13.94,73916.8,7.33,-26.93,-27.71,0,*7F
1491026641.44,24179,13.94,73918.8,7.33,-27.23,-28.09,0,*74
1491026642.69,24180,13.94,73918.3,7.33,-28.05,-28.91,0,*78
1491026643.94,24181,13.94,73918.0,7.33,-28.05,-28.79,0,*7F
1491026645.22,24182,13.94,73916.5,7.31,-28.63,-29.51,0,*75
1491026646.47,24183,13.94,73912.8,7.31,-28.75,-29.61,0,*70
1491026647.72,24184,13.94,73914.5,7.29,-28.75,-29.51,0,*7D
1491026648.97,24185,13.94,73916.8,7.31,-28.31,-29.17,0,*77
1491026650.21,24186,13.94,73918.0,7.29,-27.83,-28.75,0,*7E
1491026651.45,24187,13.94,73918.3,7.31,-28.09,-28.97,0,*77
1491026652.67,24188,13.94,73920.0,7.29,-28.31,-29.17,0,*73
1491026653.93,24189,13.94,73918.3,7.29,-28.59,-29.35,0,*7C
1491026655.15,24190,13.94,73916.5,7.29,-28.31,-29.17,0,*7A
1491026656.4,24191,13.94,73916.5,7.29,-28.25,-29.13,0,*7A
1491026657.62,24192,13.94,73918.3,7.27,-28.37,-29.07,0,*71
1491026658.85,24193,13.94,73916.8,7.29,-29.01,-29.95,0,*71
1491026660.11,24194,13.94,73916.5,7.29,-28.09,-29.01,0,*72
1491026661.31,24195,13.94,73916.0,7.25,-28.15,-28.85,0,*7F
1491026662.56,24196,13.94,73914.0,7.27,-26.81,-27.51,0,*7B
1491026663.77,24197,13.94,73916.0,7.29,-27.07,-27.93,0,*75
1491026664.99,24198,13.94,73916.0,7.29,-28.15,-29.01,0,*73
1491026666.22,24199,13.94,73920.3,7.29,-28.09,-28.85,0,*72
1491026667.43,24200,13.94,73916.5,7.29,-27.55,-28.31,0,*78
1491026668.69,24201,13.94,73916.0,7.29,-27.45,-28.25,0,*7D
1491026669.94,24202,13.94,73916.0,7.29,-27.39,-28.25,0,*75
1491026671.2,24203,13.94,73920.0,7.29,-27.39,-28.25,0,*74
1491026672.41,24204,13.94,73916.3,7.29,-27.93,-28.85,0,*79
1491026673.63,24205,13.94,73918.3,7.29,-28.09,-28.97,0,*77
1491026674.86,24206,13.94,73916.3,7.29,-28.75,-29.67,0,*71
1491026676.1,24207,13.94,73916.8,7.29,-28.43,-29.29,0,*7F
1491026677.38,24208,13.94,73916.0,7.27,-28.21,-29.01,0,*70
1491026678.64,24209,13.94,73920.5,7.27,-27.29,-28.05,0,*73
1491026679.89,24210,13.94,73918.8,7.27,-27.13,-27.99,0,*78
1491026681.16,24211,13.94,73918.0,7.27,-26.71,-27.45,0,*7D
1491026682.39,24212,13.94,73918.0,7.29,-27.39,-28.31,0,*71
1491026683.61,24213,13.94,73916.3,7.29,-28.31,-29.13,0,*76
1491026684.9,24214,13.94,73918.5,7.31,-29.35,-30.17,0,*71
1491026686.12,24215,13.94,73918.3,7.29,-28.79,-29.61,0,*79
1491026687.35,24216,13.94,73916.5,7.29,-28.15,-29.01,0,*76
1491026688.57,24217,13.94,73918.5,7.27,-28.37,-29.23,0,*79
1491026689.82,24218,13.94,73914.3,7.27,-27.99,-28.85,0,*70
1491026691.05,24219,13.94,73914.5,7.27,-27.51,-28.31,0,*7A
1491026692.28,24220,13.94,73912.3,7.27,-27.03,-27.67,0,*7B
1491026693.5,24221,13.94,73912.8,7.27,-26.87,-27.51,0,*72
1491026694.73,24222,13.94,73914.8,7.31,-27.13,-27.71,0,*78
1491026695.98,24223,13.94,73916.3,7.29,-27.23,-28.09,0,*73
1491026697.24,24224,13.94,73912.8,7.31,-27.83,-28.75,0,*7C
1491026698.51,24225,13.94,73916.3,7.31,-28.43,-29.35,0,*7B
1491026699.77,24226,13.94,73916.0,7.31,-27.77,-28.63,0,*72
1491026701.03,24227,13.94,73912.8,7.31,-28.43,-29.17,0,*79
1491026702.29,24228,13.94,73918.0,7.29,-28.59,-29.35,0,*74
1491026703.52,24229,13.94,73916.3,7.29,-27.77,-28.59,0,*7D
1491026704.75,24230,13.94,73918.5,7.29,-26.97,-27.77,0,*79
1491026705.96,24231,13.94,73916.5,7.29,-27.07,-27.93,0,*7A
1491026707.24,24232,13.94,73914.0,7.31,-27.61,-28.47,0,*76
1491026708.43,24233,13.94,73912.8,7.29,-28.15,-28.97,0,*7F
1491026709.68,24234,13.94,73918.3,7.31,-28.09,-28.85,0,*7F
1491026710.95,24235,13.94,73918.8,7.31,-27.83,-28.75,0,*7C
1491026712.17,24236,13.94,73916.8,7.29,-27.93,-28.75,0,*77
1491026713.43,24237,13.94,73920.8,7.31,-27.45,-28.15,0,*72
1491026714.67,24238,13.94,73914.3,7.31,-27.77,-28.47,0,*7B
1491026715.92,24239,13.94,73916.5,7.31,-27.77,-28.63,0,*7C
1491026717.19,24240,13.94,73916.8,7.31,-27.99,-28.75,0,*75
1491026718.44,24241,13.94,73918.8,7.31,-27.55,-28.43,0,*71
1491026719.71,24242,13.94,73918.3,7.31,-27.23,-27.99,0,*7B
1491026720.96,24243,13.94,73916.8,7.31,-27.13,-27.99,0,*79
1491026722.18,24244,13.94,73918.8,7.31,-28.15,-28.97,0,*76
1491026723.45,24245,13.94,73914.8,7.31,-28.43,-29.17,0,*7D
1491026724.69,24246,13.94,73920.8,7.31,-27.55,-28.43,0,*76
1491026725.93,24247,13.94,73920.0,7.31,-28.31,-29.13,0,*7E
1491026727.16,24248,13.94,73916.5,7.29,-28.15,-29.01,0,*7D
1491026728.38,24249,13.94,73918.8,7.29,-27.55,-28.43,0,*70
1491026729.62,24250,13.94,73920.3,7.29,-28.43,-29.29,0,*7D
1491026730.87,24251,13.94,73916.3,7.29,-27.61,-28.31,0,*7B
1491026732.1,24252,13.94,73916.8,7.29,-26.81,-27.71,0,*7C
1491026733.33,24253,13.94,73918.0,7.31,-27.29,-28.15,0,*7A
1491026734.61,24254,13.94,73918.8,7.31,-27.23,-28.25,0,*74
1491026735.83,24255,13.94,73918.0,7.33,-28.09,-28.97,0,*79
1491026737.06,24256,13.94,73918.0,7.29,-28.63,-29.45,0,*73
1491026738.29,24257,13.94,73916.0,7.29,-28.59,-29.45,0,*7B
1491026739.49,24258,13.94,73920.3,7.29,-27.13,-27.93,0,*70
1491026740.74,24259,13.94,73916.8,7.31,-26.97,-27.71,0,*79
1491026742.02,24260,13.94,73920.8,7.31,-26.77,-27.45,0,*7A
1491026743.27,24261,13.94,73920.5,7.29,-26.81,-27.45,0,*7B
1491026744.5,24262,13.94,73918.0,7.31,-27.29,-28.15,0,*78
1491026745.76,24263,13.94,73918.3,7.33,-27.39,-28.25,0,*79
1491026746.99,24264,13.94,73918.8,7.33,-27.51,-28.25,0,*70
1491026748.21,24265,13.94,73916.8,7.33,-27.93,-28.75,0,*7A
1491026749.49,24266,13.94,73916.5,7.31,-28.25,-29.01,0,*7B
1491026750.76,24267,13.94,73918.0,7.31,-27.45,-28.25,0,*74
1491026752.05,24268,13.94,73916.5,7.35,-27.61,-28.47,0,*7D
1491026753.28,24269,13.94,73916.0,7.33,-27.51,-28.21,0,*79
1491026754.53,24270,13.94,73916.3,7.33,-27.39,-28.21,0,*7F
1491026755.76,24271,13.94,73916.3,7.33,-27.93,-28.79,0,*73
1491026756.98,24272,13.94,73918.0,7.33,-27.77,-28.59,0,*78
1491026758.23,24273,13.94,73918.5,7.33,-27.35,-28.09,0,*7A
1491026759.46,24274,13.94,73920.0,7.35,-27.51,-28.31,0,*72
1491026760.72,24275,13.94,73918.8,7.35,-27.71,-28.63,0,*76
1491026761.92,24276,13.94,73916.0,7.33,-26.87,-27.55,0,*71
1491026763.17,24277,13.94,73916.8,7.33,-26.71,-27.39,0,*73
1491026764.42,24278,13.94,73918.3,7.33,-26.71,-27.35,0,*70
1491026765.67,24279,13.94,73922.0,7.35,-27.03,-27.99,0,*75
1491026766.95,24280,13.94,73918.3,7.35,-27.83,-28.63,0,*71
1491026768.2,24281,13.94,73916.3,7.35,-27.13,-27.83,0,*78
1491026769.42,24282,13.94,73918.0,7.35,-26.87,-27.67,0,*7D
1491026770.67,24283,13.94,73920.0,7.35,-28.75,-29.67,0,*71
1491026771.89,24284,13.94,73918.3,7.35,-28.31,-29.07,0,*70
1491026773.15,24285,13.94,73918.0,7.35,-27.51,-28.21,0,*7D
1491026774.36,24286,13.94,73916.8,7.35,-28.31,-29.07,0,*72
1491026775.62,24287,13.94,73916.0,7.35,-28.85,-29.73,0,*7F
1491026776.85,24288,13.94,73914.5,7.33,-28.59,-29.45,0,*72
1491026778.07,24289,13.94,73918.5,7.33,-28.53,-29.29,0,*73
1491026779.27,24290,13.94,73920.0,7.33,-27.55,-28.37,0,*7C
1491026780.51,24291,13.94,73916.8,7.33,-28.43,-29.13,0,*72
1491026781.74,24292,13.94,73916.0,7.33,-27.93,-28.75,0,*72
1491026782.94,24293,13.94,73920.3,7.33,-27.07,-27.93,0,*79
1491026784.14,24294,13.94,73916.0,7.33,-27.89,-28.69,0,*72
1491026785.37,24295,13.94,73918.0,7.33,-28.21,-28.97,0,*7F
1491026786.57,24296,13.94,73916.3,7.33,-27.71,-28.53,0,*7E
1491026787.77,24297,13.94,73918.8,7.33,-27.51,-28.37,0,*7F
1491026789.0,24298,13.94,73920.3,7.33,-26.93,-27.51,0,*70
1491026790.27,24299,13.94,73918.3,7.35,-27.19,-27.99,0,*70
1491026791.52,24300,13.94,73916.8,7.33,-26.71,-27.39,0,*72
1491026792.78,24301,13.94,73918.8,7.35,-27.29,-27.99,0,*73
1491026794.0,24302,13.94,73916.5,7.33,-28.59,-29.23,0,*71
1491026795.23,24303,13.94,73916.8,7.33,-27.93,-28.91,0,*71
1491026796.46,24304,13.94,73918.8,7.33,-27.93,-28.79,0,*70
1491026797.68,24305,13.94,73916.3,7.33,-28.21,-28.97,0,*77
1491026798.88,24306,13.94,73918.3,7.33,-28.37,-29.07,0,*7B
1491026800.1,24307,13.94,73916.0,7.33,-27.89,-28.75,0,*74
1491026801.33,24308,13.94,73918.5,7.33,-28.21,-28.97,0,*7A
1491026802.56,24309,13.94,73920.3,7.33,-28.21,-29.07,0,*73
1491026803.76,24310,13.94,73918.3,7.33,-27.93,-28.69,0,*74
1491026805.0,24311,13.94,73918.3,7.31,-27.77,-28.75,0,*70
1491026806.25,24312,13.94,73918.5,7.31,-27.23,-27.77,0,*7F
1491026807.51,24313,13.94,73918.3,7.31,-27.99,-28.75,0,*72
1491026808.77,24314,13.94,73918.8,7.31,-27.99,-28.85,0,*7A
1491026810.04,24315,13.94,73920.3,7.31,-27.23,-27.99,0,*78
1491026811.32,24316,13.94,73916.0,7.31,-28.59,-29.35,0,*71
1491026812.57,24317,13.94,73918.8,7.31,-28.63,-29.45,0,*7E
1491026813.82,24318,13.94,73920.5,7.31,-27.71,-28.59,0,*71
1491026815.07,24319,13.94,73920.0,7.31,-28.59,-29.45,0,*79
1491026816.32,24320,13.94,73918.0,7.29,-28.59,-29.17,0,*7D
1491026817.56,24321,13.94,73918.8,7.31,-28.31,-29.01,0,*7C
1491026818.8,24322,13.94,73916.0,7.31,-28.31,-29.13,0,*7C
1491026820.01,24323,13.94,73918.3,7.29,-27.93,-28.85,0,*7D
1491026821.25,24324,13.94,73918.8,7.29,-27.61,-28.31,0,*78
1491026822.46,24325,13.94,73918.8,7.29,-27.07,-27.71,0,*72
1491026823.7,24326,13.94,73916.5,7.31,-26.55,-27.13,0,*7A
1491026824.97,24327,13.94,73920.8,7.31,-26.55,-27.23,0,*78
1491026826.24,24328,13.94,73922.8,7.31,-27.83,-28.59,0,*7F
1491026827.48,24329,13.94,73920.8,7.31,-27.93,-28.75,0,*71
1491026828.74,24330,13.94,73920.5,7.33,-28.79,-29.73,0,*77
1491026829.96,24331,13.94,73916.0,7.29,-29.61,-30.39,0,*73
1491026831.17,24332,13.94,73922.0,7.29,-29.45,-30.23,0,*7D
1491026832.4,24333,13.94,73918.0,7.27,-29.23,-30.11,0,*73
1491026833.65,24334,13.94,73916.8,7.27,-28.05,-28.85,0,*75
1491026834.93,24335,13.94,73922.0,7.27,-28.63,-29.39,0,*72
1491026836.17,24336,13.94,73916.5,7.27,-28.47,-29.23,0,*7C
1491026837.37,24337,13.94,73916.0,7.25,-27.77,-28.53,0,*75
1491026838.57,24338,13.94,73916.5,7.25,-27.67,-28.37,0,*79
1491026839.84,24339,13.94,73918.8,7.27,-27.83,-28.63,0,*71
1491026841.08,24340,13.94,73918.3,7.27,-27.51,-28.31,0,*77
1491026842.35,24341,13.94,73920.8,7.27,-27.19,-28.05,0,*7D
1491026843.6,24342,13.94,73918.8,7.27,-27.03,-27.83,0,*74
1491026844.85,24343,13.94,73918.0,7.27,-27.89,-28.63,0,*76
1491026846.1,24344,13.94,73918.0,7.27,-28.15,-29.01,0,*7E
1491026847.37,24345,13.94,73916.5,7.27,-28.63,-29.39,0,*75
1491026848.65,24346,13.94,73916.3,7.27,-28.05,-28.91,0,*75
1491026849.93,24347,13.94,73918.8,7.27,-27.99,-28.63,0,*73
1491026851.18,24348,13.94,73920.5,7.27,-27.77,-28.47,0,*7A
1491026852.43,24349,13.94,73916.8,7.25,-28.05,-28.91,0,*78
1491026853.71,24350,13.94,73918.5,7.27,-28.91,-29.73,0,*72
1491026854.97,24351,13.94,73916.5,7.27,-27.89,-28.63,0,*75
1491026856.2,24352,13.94,73916.3,7.25,-28.53,-29.35,0,*7E
1491026857.44,24353,13.94,73920.3,7.25,-28.63,-29.39,0,*70
1491026858.66,24354,13.94,73914.5,7.25,-27.89,-28.79,0,*79
1491026859.87,24355,13.94,73920.5,7.25,-28.37,-28.85,0,*71
1491026861.12,24356,13.94,73918.8,7.25,-28.91,-30.01,0,*7B
1491026862.35,24357,13.94,73916.3,7.21,-28.53,-29.29,0,*72
1491026863.58,24358,13.94,73920.8,7.25,-29.01,-29.83,0,*7F
1491026864.85,24359,13.94,73916.5,7.19,-28.59,-29.29,0,*7D
1491026866.1,24360,13.94,73916.5,7.19,-27.77,-28.59,0,*72
1491026867.35,24361,13.94,73922.8,7.19,-29.13,-29.83,0,*79
1491026868.63,24362,13.94,73916.8,7.19,-29.35,-30.17,0,*7B
1491026869.85,24363,13.94,73920.8,7.19,-28.15,-28.97,0,*78
1491026871.11,24364,13.94,73918.8,7.19,-28.47,-29.29,0,*7C
1491026872.35,24365,13.94,73920.0,7.17,-27.99,-28.75,0,*77
1491026873.58,24366,13.94,73920.5,7.17,-27.77,-28.43,0,*71
1491026874.8,24367,13.94,73920.0,7.17,-27.71,-28.47,0,*72
1491026876.08,24368,13.94,73920.0,7.19,-28.09,-28.91,0,*78
1491026877.35,24369,13.94,73916.8,7.19,-28.25,-29.01,0,*7F
1491026878.62,24370,13.94,73920.3,7.19,-28.75,-29.51,0,*77
1491026879.86,24371,13.94,73920.0,7.17,-28.47,-29.13,0,*7F
1491026881.11,24372,13.94,73920.8,7.17,-28.09,-28.79,0,*7B
1491026882.37,24373,13.94,73918.5,7.15,-28.05,-28.85,0,*77
1491026883.59,24374,13.94,73918.3,7.17,-27.89,-28.59,0,*78
1491026884.81,24375,13.94,73918.3,7.17,-27.71,-28.47,0,*71
1491026886.05,24376,13.94,73920.8,7.17,-28.91,-29.67,0,*70
1491026887.27,24377,13.94,73916.8,7.17,-28.31,-29.01,0,*7B
1491026888.52,24378,13.94,73922.3,7.17,-27.99,-28.91,0,*71
1491026889.77,24379,13.94,73922.8,7.15,-27.99,-28.69,0,*75
1491026891.05,24380,13.94,73920.0,7.15,-27.45,-28.21,0,*7E
1491026892.29,24381,13.94,73922.8,7.17,-27.61,-28.31,0,*7A
1491026893.51,24382,13.94,73920.5,7.17,-27.93,-28.75,0,*74
1491026894.74,24383,13.94,73922.0,7.17,-29.07,-30.05,0,*78
1491026895.97,24384,13.94,73920.0,7.17,-29.67,-30.39,0,*76
1491026897.25,24385,13.94,73920.8,7.15,-29.17,-29.89,0,*71
1491026898.5,24386,13.94,73922.3,7.13,-28.63,-29.35,0,*71
1491026899.75,24387,13.94,73918.5,7.13,-28.63,-29.39,0,*7C
1491026900.98,24388,13.94,73918.8,7.13,-28.05,-28.69,0,*77
1491026902.24,24389,13.94,73920.8,7.11,-27.83,-28.59,0,*76
1491026903.46,24390,13.94,73922.5,7.13,-27.83,-28.53,0,*76
1491026904.69,24391,13.94,73916.8,7.13,-27.67,-28.47,0,*78